STARLINK-32871, 62924

Orbit data source: Space-Track

STARLINK-32871, 62924 is a payload satellite owned by SpaceX/Seattle (US) in LEO that was launched on Sat, 08 Feb 2025 UTC via an FALCON 9 launch vehicle from the Air Force Eastern Test Range (AFETR). Payload-class satellites include a variety of spacecraft equipped with specific instruments for various scientific and technological missions. These include communications satellites like Starlink; space stations such as the ISS; scientific satellites like the Hubble; Earth observation satellites from companies like Planet Labs, Umbra, and HawkEye 360; GPS; miniature CubeSats for education and research; and military/defense satellites.

Loading next visibility...
Identifier
62924, 2025-027T
Orbit
LEO
Country
Flag of USUS
Related business
Manufacturer
SpaceX/Seattle
Mission
Operational Commercial Communications
Bus & Motor
STARLINK V2M, Unknown motor
Mass
730 kg wet, ~700 kg dry
Launch date (UTC)
2025-02-08 (1 year ago)
Launch vehicle
FALCON 9
Launch site
Air Force Eastern Test Range (AFETR)
Object type
Payload
Rocket body
Debris
Shape & HBR
Box + 2 Pan, 17.7 m
Radar Cross Section
33.884 m², Large (>1 m²)

Expand to show TLE details & history
Last TLE update: 6 hours ago

TLE from 6 hours ago
0 STARLINK-32871
1 62924U 25027T   26034.50155200  .00029570  00000-0  10782-2 0  9995
2 62924  43.0014 321.9464 0003484  58.3526 301.7665 15.27623918 56311
Epoch: 2026-02-03T12:02Z
TLE epoch observation values (Epoch: 2026-02-03T12:02:14.092Z)
Latitude
-0.00005°
Longitude
7.70606°
Altitude
481.435 km
Speed
7.627 km/s
True Right ascension
21h 27m 47s
True Declination
0° 00' 00"
Sunlit
Object was in daylight at epoch
Visualization orbit readout
Latitude
Unknown
Longitude
Unknown
Altitude
Unknown
Speed
Unknown
Apparent Right ascension
Unknown
Apparent Declination
Unknown
Sunlit
N/A
Visualization observer readout
Local Sidereal Time
20:26:35
Azimuth
Unknown
Elevation
Unknown
Doppler factor
Unknown
Orbital elements
Apogee altitude
487.254 km
Perigee altitude
482.471 km
Semi-major axis
6,863 km
Eccentricity
0.00035
Inclination
43.0014°
RAAN
321.9464°
Arg. of periapsis
58.3526°
True anomaly
301.73255°
Mean anomaly
301.7665°
Eccentric anomaly
301.74953°
Mean motion
3.81744 °/min
Orbital period
94.3 mins
BSTAR
0.0010782
Loading maneuver chart data...
Computing Atmospheric mass density...
Loading historical data...
Loading historical data...
Loading historical data...
Loading historical data...
Loading historical data...
Loading historical data...
Loading historical data...

Documentation

Showing up to 5 results
|